T77NM Weather Reports


time (UTC)temp
F
wind
direction
speed
knots
gust
knots
rain 1hr
in
rain 24hr
in
rain mn
in
humidity
%
barometer
mb
20260507234541 57 194 0.0 2.6 0.00 0.00 0.00 82 1013.6
20260507233035 57 328 0.0 0.9 0.00 0.00 0.00 82 1013.6
20260507231539 58 328 0.0 1.7 0.00 0.00 0.00 80 1013.6
20260507230039 60 35 0.9 4.3 0.00 0.00 0.00 74 1013.7
20260507224628 60 123 2.6 6.1 0.00 0.00 0.00 76 1013.6
20260507223025 59 134 0.9 4.3 0.00 0.00 0.00 80 1013.5
20260507221524 59 109 1.7 4.3 0.00 0.00 0.00 80 1013.5
20260507220024 59 100 0.0 1.7 0.00 0.00 0.00 79 1013.5
20260507214522 59 111 0.9 7.0 0.00 0.00 0.00 79 1013.4
20260507213020 59 92 1.7 4.3 0.00 0.00 0.00 80 1013.5
20260507211533 59 101 0.9 4.3 0.00 0.00 0.00 80 1013.5
20260507210020 59 111 1.7 6.1 0.00 0.00 0.00 80 1013.5
20260507204523 59 121 0.9 7.0 0.00 0.00 0.00 80 1013.6
20260507203022 59 112 0.9 2.6 0.00 0.00 0.00 81 1013.8
20260507201519 59 112 0.9 3.5 0.00 0.00 0.00 80 1013.9
20260507200017 59 115 0.9 6.1 0.00 0.00 0.00 80 1013.7
20260507194522 60 123 1.7 6.1 0.00 0.00 0.00 79 1013.7
20260507193015 60 121 2.6 7.8 0.00 0.00 0.00 79 1013.6
20260507191515 59 111 2.6 8.7 0.00 0.00 0.00 78 1013.3
20260507190015 59 136 4.3 9.6 0.00 0.00 0.00 76 1013.2
20260507184514 59 109 5.2 9.6 0.00 0.00 0.00 79 1013.2
20260507183033 59 84 3.5 7.8 0.00 0.00 0.00 84 1013.2
20260507181513 59 109 2.6 6.1 0.00 0.00 0.00 85 1013.2
20260507180012 60 86 3.5 6.1 0.00 0.00 0.00 84 1012.9
20260507174515 61 86 2.6 6.1 0.00 0.00 0.00 82 1012.7
20260507173010 62 112 0.9 6.1 0.00 0.00 0.00 79 1012.6
20260507171510 63 117 0.9 5.2 0.00 0.00 0.00 75 1012.7
20260507170009 65 35 0.9 3.5 0.00 0.00 0.00 71 1012.7
20260507164509 65 126 0.0 3.5 0.00 0.00 0.00 69 1012.6
20260507163007 65 66 0.9 3.5 0.00 0.00 0.00 68 1012.6
20260507161508 65 134 1.7 6.1 0.00 0.00 0.00 67 1012.7
20260507160017 64 104 0.9 7.8 0.00 0.00 0.00 67 1012.7
20260507154507 65 315 0.9 5.2 0.00 0.00 0.00 64 1012.7
20260507153006 66 19 0.9 5.2 0.00 0.00 0.00 61 1012.6
20260507151505 65 115 1.7 7.0 0.00 0.00 0.00 64 1012.7
20260507150006 66 64 2.6 6.1 0.00 0.00 0.00 61 1012.7
20260507144505 67 313 0.9 5.2 0.00 0.00 0.00 61 1012.7
20260507143007 67 90 2.6 5.2 0.00 0.00 0.00 60 1012.7
20260507141513 67 63 0.9 3.5 0.00 0.00 0.00 62 1012.7
20260507140006 66 71 3.5 8.7 0.00 0.00 0.00 64 1012.7
20260507134503 66 28 1.7 7.8 0.00 0.00 0.00 63 1012.7
20260507133003 68 33 1.7 5.2 0.00 0.00 0.00 61 1012.8
20260507131502 67 71 0.9 7.0 0.00 0.00 0.00 60 1012.9
20260507130001 67 46 1.7 6.1 0.00 0.00 0.00 60 1012.9
20260507124503 68 209 0.9 6.1 0.00 0.00 0.00 59 1012.8
20260507123103 68 123 0.9 3.5 0.00 0.00 0.00 58 1012.9
20260507121558 66 360 1.7 7.8 0.00 0.00 0.00 60 1013.0
20260507120058 67 130 1.7 7.0 0.00 0.00 0.00 59 1013.1
20260507114612 66 94 1.7 5.2 0.00 0.00 0.00 60 1013.2
20260507113058 66 155 0.9 7.8 0.00 0.00 0.00 59 1013.2
20260507111556 66 22 3.5 9.6 0.00 0.00 0.00 59 1013.2
20260507110057 66 49 0.9 6.1 0.00 0.00 0.00 58 1013.4
20260507104558 65 26 0.9 4.3 0.00 0.00 0.00 61 1013.5
20260507103055 66 254 1.7 8.7 0.00 0.00 0.00 53 1013.5
20260507101557 66 294 0.9 9.6 0.00 0.00 0.00 44 1013.4
20260507100054 67 305 0.9 7.0 0.00 0.00 0.00 42 1013.4
20260507094546 66 306 3.5 10.4 0.00 0.00 0.00 43 1013.4
20260507093044 65 259 4.3 13.9 0.00 0.00 0.00 46 1013.3
20260507091544 65 230 5.2 9.6 0.00 0.00 0.00 42 1013.3
20260507090040 64 235 3.5 14.8 0.00 0.00 0.00 41 1013.3
20260507084538 65 279 6.1 12.2 0.00 0.00 0.00 46 1013.3
20260507083034 63 254 5.2 9.6 0.00 0.00 0.00 49 1013.2
20260507081531 63 204 4.3 8.7 0.00 0.00 0.00 54 1013.0
20260507080030 62 39 1.7 9.6 0.00 0.00 0.00 57 1012.9
20260507074530 63 222 5.2 9.6 0.00 0.00 0.00 56 1012.8
20260507073029 63 223 0.0 5.2 0.00 0.00 0.00 58 1012.8
20260507071523 61 215 0.0 7.8 0.00 0.00 0.00 61 1012.8
20260507070019 60 236 1.7 6.1 0.00 0.00 0.00 63 1013.1
20260507064516 59 263 1.7 5.2 0.00 0.00 0.00 66 1013.1
20260507063025 59 194 1.7 5.2 0.00 0.00 0.00 67 1012.9
20260507061512 58 190 1.7 6.1 0.00 0.00 0.00 68 1013.0
20260507060024 57 185 3.5 7.8 0.00 0.00 0.00 69 1012.8
20260507054508 57 242 3.5 8.7 0.00 0.00 0.00 72 1012.7
20260507053006 56 241 4.3 7.0 0.00 0.00 0.00 75 1012.5
20260507051604 56 215 1.7 4.3 0.00 0.00 0.00 75 1012.4
20260507050101 57 240 1.7 6.1 0.00 0.00 0.00 73 1012.3
20260507044555 58 198 3.5 7.0 0.00 0.01 0.00 71 1012.1
20260507043052 58 238 4.3 9.6 0.00 0.01 0.00 70 1011.7
20260507041549 58 248 0.9 4.3 0.00 0.01 0.00 70 1011.5
20260507040048 58 196 0.0 6.1 0.00 0.01 0.00 71 1011.7
20260507034548 58 141 3.5 6.1 0.00 0.01 0.00 72 1011.5
20260507033048 58 181 2.6 9.6 0.00 0.01 0.00 72 1011.6
20260507031547 58 177 3.5 7.0 0.00 0.01 0.00 73 1011.6
20260507030045 58 246 6.1 9.6 0.00 0.01 0.00 72 1011.7
20260507024543 58 284 5.2 12.2 0.00 0.01 0.00 72 1011.4
20260507023041 58 161 1.7 8.7 0.00 0.01 0.00 75 1011.4
20260507021539 58 259 0.9 6.1 0.00 0.01 0.00 75 1011.4
20260507020043 59 254 2.6 6.1 0.00 0.01 0.00 74 1011.3
20260507014548 59 197 0.9 3.5 0.00 0.01 0.00 75 1011.4
20260507013136 59 276 4.3 9.6 0.00 0.01 0.00 75 1011.4
20260507011536 59 213 0.9 10.4 0.00 0.01 0.00 76 1011.4
20260507010045 59 183 0.9 6.1 0.00 0.01 0.00 77 1011.3
20260507004534 59 311 1.7 8.7 0.00 0.01 0.00 74 1011.5
20260507003031 59 217 6.1 12.2 0.00 0.01 0.00 74 1011.5
20260507001533 59 244 0.9 3.5 0.00 0.01 0.00 74 1011.4
20260507000027 59 292 5.2 9.6 0.00 0.01 0.00 73 1011.5